Location: Niedergestelen
(46.3129°N, 7.7822°E)
Time: 06:38:25
(UTC+00:00)

Meteor 1-27 Rocket - Pass Details

Date: 01 December 2020
Orbit: 830 x 909 km, 81.3° (Epoch: 18 January)

Event Time Altitude Azimuth Distance (km) Brightness Sun altitude
Rises 18:13:39 0° 181° (S) 3,361 6.9 -25.1°
Reaches altitude 10° 18:16:02 10° 179° (S) 2,435 6.1 -25.5°
Enters shadow 18:20:22 54° 154° (SSE) 1,013 3.9 -26.2°
